TimeCDT,TemperatureF,Dew PointF,Humidity,Sea Level PressureIn,VisibilityMPH,Wind Direction,Wind SpeedMPH,Gust SpeedMPH,PrecipitationIn,Events,Conditions,WindDirDegrees,DateUTC
12:15 AM,66.2,53.6,64,30.05,10.0,South,4.6,-,N/A,,Clear,170,2013-10-10 05:15:00
12:35 AM,66.2,53.6,64,30.05,10.0,SSE,4.6,-,N/A,,Clear,160,2013-10-10 05:35:00
12:55 AM,64.4,53.6,68,30.05,10.0,Calm,Calm,-,N/A,,Clear,0,2013-10-10 05:55:00
1:15 AM,64.4,53.6,68,30.05,10.0,Calm,Calm,-,N/A,,Clear,0,2013-10-10 06:15:00
1:35 AM,64.4,53.6,68,30.05,10.0,Calm,Calm,-,N/A,,Clear,0,2013-10-10 06:35:00
1:55 AM,62.6,53.6,72,30.05,10.0,Calm,Calm,-,N/A,,Clear,0,2013-10-10 06:55:00
2:15 AM,62.6,53.6,72,30.05,10.0,Calm,Calm,-,N/A,,Clear,0,2013-10-10 07:15:00
2:35 AM,62.6,53.6,72,30.05,10.0,South,3.5,-,N/A,,Clear,190,2013-10-10 07:35:00
2:55 AM,62.6,55.4,77,30.05,10.0,Calm,Calm,-,N/A,,Clear,0,2013-10-10 07:55:00
3:15 AM,62.6,55.4,77,30.04,10.0,Calm,Calm,-,N/A,,Clear,0,2013-10-10 08:15:00
3:35 AM,62.6,55.4,77,30.04,10.0,South,4.6,-,N/A,,Clear,190,2013-10-10 08:35:00
3:55 AM,64.4,59.0,83,30.04,10.0,South,9.2,-,N/A,,Clear,170,2013-10-10 08:55:00
4:15 AM,64.4,60.8,88,30.03,10.0,South,10.4,-,N/A,,Clear,170,2013-10-10 09:15:00
4:35 AM,64.4,60.8,88,30.03,10.0,South,10.4,-,N/A,,Clear,170,2013-10-10 09:35:00
4:55 AM,64.4,60.8,88,30.03,10.0,South,12.7,-,N/A,,Clear,170,2013-10-10 09:55:00
5:15 AM,64.4,62.6,94,30.03,10.0,South,11.5,-,N/A,,Clear,170,2013-10-10 10:15:00
5:35 AM,64.4,62.6,94,30.04,10.0,South,9.2,-,N/A,,Clear,180,2013-10-10 10:35:00
5:55 AM,64.4,62.6,94,30.04,10.0,South,11.5,-,N/A,,Partly Cloudy,180,2013-10-10 10:55:00
6:15 AM,64.4,62.6,94,30.04,10.0,South,12.7,-,N/A,,Scattered Clouds,170,2013-10-10 11:15:00
6:35 AM,64.4,62.6,94,30.04,10.0,South,13.8,-,N/A,,Partly Cloudy,180,2013-10-10 11:35:00
6:55 AM,64.4,60.8,88,30.04,10.0,South,12.7,-,N/A,,Partly Cloudy,170,2013-10-10 11:55:00
7:15 AM,64.4,60.8,88,30.05,10.0,South,11.5,16.1,N/A,,Mostly Cloudy,180,2013-10-10 12:15:00
7:35 AM,66.2,60.8,83,30.05,10.0,South,12.7,18.4,N/A,,Overcast,180,2013-10-10 12:35:00
7:55 AM,66.2,60.8,83,30.05,10.0,South,13.8,19.6,N/A,,Overcast,170,2013-10-10 12:55:00
8:15 AM,66.2,60.8,83,30.06,10.0,South,15.0,23.0,N/A,,Overcast,180,2013-10-10 13:15:00
8:35 AM,66.2,60.8,83,30.06,10.0,South,13.8,-,N/A,,Overcast,180,2013-10-10 13:35:00
8:55 AM,66.2,60.8,83,30.07,9.0,South,18.4,23.0,N/A,,Mostly Cloudy,180,2013-10-10 13:55:00
9:15 AM,66.2,60.8,83,30.07,10.0,South,16.1,20.7,N/A,,Scattered Clouds,170,2013-10-10 14:15:00
9:35 AM,68.0,60.8,78,30.07,10.0,South,20.7,25.3,N/A,,Scattered Clouds,180,2013-10-10 14:35:00
9:55 AM,69.8,60.8,73,30.07,7.0,South,20.7,25.3,N/A,,Partly Cloudy,180,2013-10-10 14:55:00
10:15 AM,69.8,60.8,73,30.07,9.0,South,17.3,25.3,N/A,,Partly Cloudy,180,2013-10-10 15:15:00
10:35 AM,71.6,60.8,69,30.07,8.0,South,16.1,24.2,N/A,,Partly Cloudy,170,2013-10-10 15:35:00
10:55 AM,71.6,60.8,69,30.07,10.0,South,18.4,-,N/A,,Clear,170,2013-10-10 15:55:00
11:15 AM,73.4,59.0,61,30.06,8.0,South,15.0,20.7,N/A,,Clear,180,2013-10-10 16:15:00
11:35 AM,73.4,59.0,61,30.05,10.0,South,17.3,20.7,N/A,,Clear,170,2013-10-10 16:35:00
11:55 AM,75.2,57.2,53,30.05,10.0,South,15.0,-,N/A,,Clear,170,2013-10-10 16:55:00
12:15 PM,77.0,57.2,50,30.04,10.0,SSE,16.1,21.9,N/A,,Clear,160,2013-10-10 17:15:00
12:35 PM,77.0,57.2,50,30.04,7.0,South,13.8,23.0,N/A,,Clear,170,2013-10-10 17:35:00
12:55 PM,78.8,57.2,47,30.02,10.0,South,17.3,20.7,N/A,,Clear,190,2013-10-10 17:55:00
1:15 PM,78.8,55.4,44,30.01,9.0,SSE,16.1,-,N/A,,Clear,160,2013-10-10 18:15:00
1:35 PM,80.6,53.6,39,30.00,9.0,South,16.1,23.0,N/A,,Clear,170,2013-10-10 18:35:00
1:55 PM,80.6,53.6,39,29.98,3.0,South,17.3,21.9,N/A,,Haze,170,2013-10-10 18:55:00
2:15 PM,82.4,53.6,37,29.97,2.5,SSE,18.4,24.2,N/A,,Haze,160,2013-10-10 19:15:00
2:35 PM,82.4,51.8,35,29.96,10.0,South,16.1,21.9,N/A,,Clear,170,2013-10-10 19:35:00
2:55 PM,82.4,53.6,37,29.95,10.0,SSE,17.3,24.2,N/A,,Clear,150,2013-10-10 19:55:00
3:15 PM,82.4,51.8,35,29.95,10.0,SSE,16.1,20.7,N/A,,Clear,160,2013-10-10 20:15:00
3:35 PM,82.4,51.8,35,29.94,9.0,SSE,17.3,23.0,N/A,,Clear,160,2013-10-10 20:35:00
3:55 PM,84.2,50.0,30,29.93,10.0,South,15.0,24.2,N/A,,Clear,180,2013-10-10 20:55:00
4:15 PM,84.2,51.8,33,29.93,10.0,SSE,12.7,20.7,N/A,,Clear,160,2013-10-10 21:15:00
4:35 PM,84.2,50.0,30,29.93,10.0,SSE,13.8,21.9,N/A,,Clear,160,2013-10-10 21:35:00
4:55 PM,84.2,50.0,30,29.93,10.0,South,16.1,-,N/A,,Clear,180,2013-10-10 21:55:00
5:15 PM,84.2,48.2,29,29.92,10.0,South,17.3,20.7,N/A,,Clear,170,2013-10-10 22:15:00
5:35 PM,82.4,50.0,32,29.91,10.0,South,17.3,-,N/A,,Clear,180,2013-10-10 22:35:00
5:55 PM,82.4,50.0,32,29.92,10.0,South,12.7,20.7,N/A,,Clear,170,2013-10-10 22:55:00
6:15 PM,82.4,50.0,32,29.92,10.0,South,12.7,-,N/A,,Clear,170,2013-10-10 23:15:00
6:35 PM,80.6,51.8,37,29.91,10.0,SSE,16.1,20.7,N/A,,Clear,150,2013-10-10 23:35:00
6:55 PM,80.6,51.8,37,29.91,10.0,SSE,12.7,16.1,N/A,,Clear,160,2013-10-10 23:55:00
7:15 PM,78.8,51.8,39,29.91,10.0,SSE,11.5,-,N/A,,Clear,160,2013-10-11 00:15:00
7:35 PM,78.8,51.8,39,29.92,10.0,South,11.5,-,N/A,,Clear,170,2013-10-11 00:35:00
7:55 PM,78.8,51.8,39,29.92,10.0,South,11.5,-,N/A,,Clear,170,2013-10-11 00:55:00
8:15 PM,77.0,51.8,41,29.92,10.0,South,10.4,17.3,N/A,,Clear,170,2013-10-11 01:15:00
8:35 PM,75.2,51.8,44,29.92,10.0,Calm,Calm,-,N/A,,Clear,0,2013-10-11 01:35:00
8:55 PM,75.2,53.6,47,29.93,10.0,South,8.1,-,N/A,,Clear,170,2013-10-11 01:55:00
9:15 PM,73.4,55.4,53,29.93,10.0,South,9.2,-,N/A,,Clear,170,2013-10-11 02:15:00
9:35 PM,73.4,55.4,53,29.94,10.0,South,9.2,-,N/A,,Clear,170,2013-10-11 02:35:00
9:55 PM,73.4,55.4,53,29.95,10.0,South,8.1,-,N/A,,Clear,180,2013-10-11 02:55:00
10:15 PM,73.4,57.2,57,29.95,10.0,South,5.8,-,N/A,,Clear,180,2013-10-11 03:15:00
10:35 PM,71.6,57.2,60,29.95,10.0,South,6.9,-,N/A,,Clear,190,2013-10-11 03:35:00
10:55 PM,71.6,57.2,60,29.95,10.0,South,6.9,-,N/A,,Clear,190,2013-10-11 03:55:00
11:15 PM,71.6,55.4,57,29.94,10.0,South,5.8,-,N/A,,Clear,180,2013-10-11 04:15:00
11:35 PM,71.6,55.4,57,29.94,10.0,South,8.1,-,N/A,,Clear,180,2013-10-11 04:35:00
11:55 PM,73.4,55.4,53,29.94,10.0,South,9.2,-,N/A,,Clear,170,2013-10-11 04:55:00